• In Uzbekistan
  • List of Countries
  • For 7 days
  • Water Temperature
  • Satellite Maps
  • Weather Map
  • Weather Widgets
  • user-avatar
    Login

    Hourly Weather Mafeteng

    Today, 12 December, Tuesday

    Time Temperature Precipitation Wind Pressure Humidity
    00:00 +16°C° 0 mm 1 mps 622 mmHg 33%
    01:00 +15°C° 0 mm 1 mps 621 mmHg 35%
    02:00 +14°C° 0 mm 1 mps 621 mmHg 42%
    03:00 +14°C° 0 mm 1 mps 621 mmHg 42%
    04:00 +13°C° 0 mm 1 mps 621 mmHg 42%
    05:00 +13°C° 0 mm 2 mps 621 mmHg 42%
    06:00 +16°C° 0 mm 2 mps 622 mmHg 37%
    07:00 +18°C° 0 mm 2 mps 623 mmHg 33%
    08:00 +20°C° 0 mm 2 mps 624 mmHg 28%
    09:00 +22°C° 0 mm 4 mps 624 mmHg 24%
    10:00 +25°C° 0 mm 5 mps 625 mmHg 19%
    11:00 +27°C° 0 mm 7 mps 625 mmHg 14%
    12:00 +28°C° 0 mm 7 mps 625 mmHg 13%
    13:00 +29°C° 0 mm 8 mps 625 mmHg 12%
    14:00 +31°C° 0 mm 8 mps 625 mmHg 11%
    15:00 +31°C° 0 mm 8 mps 625 mmHg 11%
    16:00 +29°C° 0 mm 8 mps 624 mmHg 11%
    17:00 +29°C° 0 mm 8 mps 624 mmHg 11%
    18:00 +27°C° 0 mm 6 mps 623 mmHg 14%
    19:00 +23°C° 0 mm 4 mps 623 mmHg 17%
    20:00 +20°C° 0 mm 2 mps 622 mmHg 20%
    21:00 +19°C° 0 mm 2 mps 622 mmHg 23%
    22:00 +19°C° 0 mm 1 mps 622 mmHg 26%
    23:00 +18°C° 0 mm 1 mps 622 mmHg 29%

    Tomorrow, 13 December, Wednesday

    Time Temperature Precipitation Wind Pressure Humidity
    00:00 +16°C° 0 mm 1 mps 622 mmHg 30%
    01:00 +16°C° 0 mm 1 mps 622 mmHg 32%
    02:00 +16°C° 0 mm 1 mps 621 mmHg 33%
    03:00 +15°C° 0 mm 1 mps 621 mmHg 33%
    04:00 +15°C° 0 mm 1 mps 621 mmHg 34%
    05:00 +14°C° 0 mm 1 mps 621 mmHg 34%
    06:00 +17°C° 0 mm 3 mps 622 mmHg 29%
    07:00 +20°C° 0 mm 4 mps 623 mmHg 24%
    08:00 +23°C° 0 mm 5 mps 624 mmHg 18%
    09:00 +24°C° 0 mm 7 mps 624 mmHg 16%
    10:00 +27°C° 0 mm 9 mps 624 mmHg 14%
    11:00 +28°C° 0 mm 11 mps 624 mmHg 11%
    12:00 +29°C° 0 mm 11 mps 624 mmHg 11%
    13:00 +29°C° 0 mm 11 mps 624 mmHg 10%
    14:00 +31°C° 0 mm 12 mps 624 mmHg 9%
    15:00 +29°C° 0 mm 11 mps 623 mmHg 9%
    16:00 +29°C° 0 mm 11 mps 623 mmHg 9%
    17:00 +29°C° 0 mm 10 mps 623 mmHg 9%
    18:00 +26°C° 0 mm 8 mps 622 mmHg 11%
    19:00 +23°C° 0 mm 6 mps 622 mmHg 13%
    20:00 +21°C° 0 mm 4 mps 622 mmHg 15%
    21:00 +20°C° 0 mm 4 mps 622 mmHg 18%
    22:00 +19°C° 0 mm 4 mps 623 mmHg 20%
    23:00 +18°C° 0 mm 4 mps 623 mmHg 23%

    Day after tomorrow, 14 December, Thursday

    Time Temperature Precipitation Wind Pressure Humidity
    00:00 +17°C° 0 mm 4 mps 623 mmHg 29%
    01:00 +16°C° 0 mm 3 mps 623 mmHg 35%
    02:00 +14°C° 0 mm 3 mps 623 mmHg 41%
    03:00 +13°C° 0 mm 3 mps 623 mmHg 47%
    04:00 +12°C° 0 mm 3 mps 623 mmHg 52%
    05:00 +12°C° 0 mm 3 mps 623 mmHg 58%
    06:00 +13°C° 0 mm 3 mps 624 mmHg 52%
    07:00 +16°C° 0 mm 3 mps 624 mmHg 47%
    08:00 +18°C° 0 mm 3 mps 625 mmHg 42%
    09:00 +19°C° 0 mm 3 mps 626 mmHg 36%
    10:00 +21°C° 0 mm 3 mps 626 mmHg 30%
    11:00 +24°C° 0 mm 3 mps 627 mmHg 24%
    12:00 +25°C° 0 mm 4 mps 626 mmHg 21%
    13:00 +25°C° 0 mm 4 mps 626 mmHg 18%
    14:00 +26°C° 0 mm 4 mps 626 mmHg 15%
    15:00 +26°C° 0 mm 4 mps 626 mmHg 14%
    16:00 +26°C° 0 mm 5 mps 626 mmHg 14%
    17:00 +26°C° 0 mm 5 mps 626 mmHg 13%
    18:00 +23°C° 0 mm 4 mps 626 mmHg 16%
    19:00 +21°C° 0 mm 3 mps 626 mmHg 18%
    20:00 +19°C° 0 mm 3 mps 626 mmHg 20%
    21:00 +18°C° 0 mm 2 mps 626 mmHg 23%
    22:00 +17°C° 0 mm 2 mps 626 mmHg 26%
    23:00 +16°C° 0 mm 2 mps 626 mmHg 29%

    15 December, Friday

    Time Temperature Precipitation Wind Pressure Humidity
    00:00 +15°C° 0 mm 2 mps 626 mmHg 32%
    01:00 +14°C° 0 mm 2 mps 626 mmHg 36%
    02:00 +14°C° 0 mm 2 mps 625 mmHg 40%
    03:00 +13°C° 0 mm 1 mps 625 mmHg 43%
    04:00 +12°C° 0 mm 1 mps 625 mmHg 47%
    05:00 +12°C° 0 mm 1 mps 625 mmHg 51%
    06:00 +14°C° 0 mm 1 mps 626 mmHg 44%
    07:00 +18°C° 0 mm 1 mps 627 mmHg 38%
    08:00 +20°C° 0 mm 2 mps 628 mmHg 32%
    09:00 +21°C° 0 mm 2 mps 629 mmHg 28%
    10:00 +24°C° 0 mm 2 mps 629 mmHg 24%
    11:00 +26°C° 0 mm 3 mps 629 mmHg 21%
    12:00 +27°C° 0 mm 3 mps 629 mmHg 20%
    13:00 +28°C° 0 mm 3 mps 628 mmHg 19%
    14:00 +29°C° 0 mm 4 mps 628 mmHg 18%
    15:00 +29°C° 0 mm 3 mps 628 mmHg 17%
    16:00 +30°C° 0 mm 3 mps 628 mmHg 17%
    17:00 +30°C° 0 mm 3 mps 627 mmHg 17%
    18:00 +27°C° 0 mm 3 mps 627 mmHg 21%
    19:00 +25°C° 0 mm 2 mps 626 mmHg 24%
    20:00 +23°C° 0 mm 1 mps 626 mmHg 28%
    21:00 +22°C° 0 mm 1 mps 626 mmHg 29%
    22:00 +21°C° 0 mm 1 mps 626 mmHg 30%
    23:00 +21°C° 0 mm 1 mps 626 mmHg 31%

    16 December, Saturday

    Time Temperature Precipitation Wind Pressure Humidity
    00:00 +20°C° 0 mm 1 mps 625 mmHg 33%
    01:00 +20°C° 0 mm 1 mps 625 mmHg 34%
    02:00 +18°C° 0 mm 2 mps 625 mmHg 36%
    03:00 +18°C° 0 mm 2 mps 625 mmHg 38%
    04:00 +18°C° 0 mm 2 mps 625 mmHg 41%
    05:00 +18°C° 0 mm 2 mps 625 mmHg 44%
    06:00 +20°C° 0 mm 4 mps 626 mmHg 43%
    07:00 +22°C° 0 mm 6 mps 627 mmHg 43%
    08:00 +24°C° 0 mm 7 mps 628 mmHg 42%
    09:00 +27°C° 0 mm 7 mps 628 mmHg 38%
    10:00 +28°C° 0 mm 7 mps 628 mmHg 35%
    11:00 +30°C° 0 mm 7 mps 629 mmHg 31%
    12:00 +30°C° 0 mm 7 mps 628 mmHg 29%
    13:00 +32°C° 0 mm 6 mps 628 mmHg 26%
    14:00 +33°C° 0 mm 6 mps 628 mmHg 23%
    15:00 +32°C° 0 mm 6 mps 627 mmHg 23%
    16:00 +32°C° 0 mm 6 mps 627 mmHg 23%
    17:00 +32°C° 0 mm 6 mps 626 mmHg 23%
    18:00 +29°C° 0.2 mm 5 mps 626 mmHg 28%
    19:00 +28°C° 0.2 mm 5 mps 627 mmHg 32%
    20:00 +26°C° 0.2 mm 4 mps 627 mmHg 37%
    21:00 +24°C° 0.8 mm 3 mps 626 mmHg 49%
    22:00 +21°C° 0.8 mm 3 mps 626 mmHg 62%
    23:00 +19°C° 0.8 mm 2 mps 626 mmHg 74%

    17 December, Sunday

    Time Temperature Precipitation Wind Pressure Humidity
    00:00 +19°C° 0.1 mm 2 mps 625 mmHg 74%
    01:00 +19°C° 0.1 mm 2 mps 625 mmHg 73%
    02:00 +18°C° 0.1 mm 2 mps 625 mmHg 73%
    03:00 +19°C° 0.1 mm 2 mps 625 mmHg 72%
    04:00 +19°C° 0.1 mm 2 mps 625 mmHg 71%
    05:00 +20°C° 0.1 mm 1 mps 625 mmHg 70%
    06:00 +21°C° 0.1 mm 2 mps 626 mmHg 61%
    07:00 +24°C° 0.1 mm 3 mps 627 mmHg 53%
    08:00 +26°C° 0.1 mm 4 mps 628 mmHg 45%
    09:00 +27°C° 0 mm 5 mps 628 mmHg 40%
    10:00 +29°C° 0 mm 7 mps 628 mmHg 35%
    11:00 +31°C° 0 mm 9 mps 629 mmHg 30%
    12:00 +31°C° 0 mm 8 mps 628 mmHg 30%
    13:00 +31°C° 0 mm 8 mps 628 mmHg 29%
    14:00 +30°C° 0 mm 7 mps 627 mmHg 29%
    15:00 +31°C° 0.1 mm 8 mps 627 mmHg 29%
    16:00 +31°C° 0.1 mm 8 mps 627 mmHg 29%
    17:00 +31°C° 0.1 mm 8 mps 627 mmHg 29%
    18:00 +27°C° 0.3 mm 7 mps 626 mmHg 38%
    19:00 +25°C° 0.3 mm 5 mps 626 mmHg 48%
    20:00 +22°C° 0.3 mm 4 mps 626 mmHg 57%
    21:00 +21°C° 1 mm 4 mps 626 mmHg 61%
    22:00 +20°C° 1 mm 3 mps 626 mmHg 65%
    23:00 +20°C° 1 mm 3 mps 626 mmHg 70%
    Show more